Location: Caltech
(34.1382°N, 118.1253°W)
Time: 15:30:42
(UTC-07:00)

KITSAT 1 - Visible Passes

Search period start: 25 September 2016 00:00
Search period end: 05 October 2016 00:00
Orbit: 1310 x 1320 km, 66.1° (Epoch: 24 September)

Date Brightness Start Highest point End Pass type
(mag) Time Alt. Az. Time Alt. Az. Time Alt. Az.
25 Sep 10.9 20:38:04 10° N 20:45:16 34° NE 20:45:48 34° ENE visible
25 Sep 11.4 22:33:08 10° NW 22:37:47 35° WNW 22:37:47 35° WNW visible
26 Sep 12.0 19:02:12 10° NNE 19:04:02 11° NE 19:05:50 10° NE visible
26 Sep 10.4 20:53:49 10° NNW 21:01:36 49° ENE 21:01:39 49° ENE visible
26 Sep 11.8 22:49:44 10° NW 22:53:39 25° WNW 22:53:39 25° WNW visible
27 Sep 11.7 19:16:19 10° N 19:20:57 16° NE 19:25:32 10° ENE visible
27 Sep 10.1 21:09:42 10° NNW 21:17:35 72° NE 21:17:35 72° NE visible
27 Sep 12.3 23:06:54 10° WNW 23:09:35 17° WNW 23:09:35 17° WNW visible
28 Sep 11.4 19:31:31 10° N 19:37:40 23° NE 19:41:35 16° E visible
28 Sep 10.2 21:25:46 10° NNW 21:33:36 77° W 21:33:36 77° W visible
29 Sep 10.9 19:47:03 10° N 19:54:11 33° NE 19:57:41 24° E visible
29 Sep 10.7 21:42:04 10° NW 21:49:42 52° WSW 21:49:42 52° WSW visible
30 Sep 10.5 20:02:47 10° NNW 20:10:33 48° ENE 20:13:54 32° ESE visible
30 Sep 11.4 21:58:38 10° NW 22:05:37 33° WSW 22:05:55 33° WSW visible
01 Oct 10.1 20:18:40 10° NNW 20:26:45 70° ENE 20:30:14 37° SE visible
01 Oct 12.0 22:15:44 10° WNW 22:21:19 21° WSW 22:22:16 20° WSW visible
02 Oct 10.2 20:34:43 10° NNW 20:42:49 80° WSW 20:46:45 34° SSE visible
02 Oct 12.5 22:34:22 10° W 22:36:55 12° W 22:38:48 11° WSW visible
03 Oct 11.0 18:56:02 10° N 19:03:06 32° NE 19:10:07 10° ESE visible
03 Oct 10.8 20:50:59 10° NW 20:58:45 53° WSW 21:03:29 25° S visible
04 Oct 10.5 19:11:45 10° NNW 19:19:29 46° ENE 19:27:09 10° SE visible
04 Oct 11.5 21:07:32 10° NW 21:14:35 34° WSW 21:20:30 14° SSW visible
